Location: Sydney
(46.1500°N, 60.1670°W)
Time: 17:43:34
(UTC-03:00)

Iridium 90 - Visible Passes

Search period start: 04 July 2015 00:00
Search period end: 14 July 2015 00:00
Orbit: 747 x 750 km, 86.4° (Epoch: 04 July)

Date Brightness Start Highest point End Pass type
(mag) Time Alt. Az. Time Alt. Az. Time Alt. Az.
04 Jul 7.4 00:17:15 14° ESE 00:19:09 17° ENE 00:22:24 10° NE visible
04 Jul 5.6 01:57:07 40° SSW 01:58:47 64° W 02:03:51 10° N visible
05 Jul 5.7 01:15:13 41° SSE 01:16:45 60° E 01:21:46 10° N visible
05 Jul 7.3 02:55:05 14° WSW 02:57:24 18° WNW 03:00:46 10° NNW visible
06 Jul 6.8 00:33:18 24° ESE 00:34:53 29° E 00:39:14 10° NNE visible
06 Jul 6.4 02:13:10 28° WSW 02:14:55 36° W 02:19:35 10° NNW visible
06 Jul 7.6 23:51:23 11° E 23:53:11 14° ENE 23:55:50 10° NE visible
07 Jul 5.4 01:31:15 47° SSW 01:32:43 78° W 01:37:49 10° N visible
07 Jul 7.8 03:13:07 10° WNW 03:13:53 10° WNW 03:14:21 10° WNW visible
08 Jul 5.9 00:49:20 39° SE 00:50:43 50° E 00:55:37 10° NNE visible
08 Jul 7.1 02:29:12 17° WSW 02:31:12 21° WNW 02:35:01 10° NNW visible
09 Jul 6.9 00:07:24 21° ESE 00:08:54 24° E 00:12:57 10° NNE visible
09 Jul 6.1 01:47:16 34° WSW 01:48:47 44° W 01:53:38 10° N visible
09 Jul 7.7 23:25:52 10° E 23:27:14 11° ENE 23:28:55 10° NE visible
10 Jul 5.4 01:05:20 51° S 01:06:38 87° E 01:11:45 10° N visible
10 Jul 7.7 02:45:21 10° W 02:47:38 13° WNW 02:49:40 10° NW visible
11 Jul 6.2 00:23:24 34° ESE 00:24:41 41° E 00:29:27 10° NNE visible
11 Jul 6.9 02:03:15 21° WSW 02:05:00 26° WNW 02:09:11 10° NNW visible
11 Jul 7.1 23:41:27 17° ESE 23:42:54 20° E 23:46:35 10° NNE visible
12 Jul 5.8 01:21:19 41° SW 01:22:40 53° W 01:27:39 10° N visible
13 Jul 5.4 00:39:22 51° SSE 00:40:35 73° E 00:45:39 10° N visible
13 Jul 7.5 02:19:13 12° W 02:21:23 15° WNW 02:24:12 10° NW visible
